#timestamp,LO_Frequency,Hit 
1501210815.8,286047007.8,N
1501210835.6,286047008.8,N
1501210855.5,286047004.9,N
1501210875.3,286047004.9,N
1501210895.1,286047006.0,N
1501210915.9,286047004.2,N
1501210935.7,286047001.7,N
1501210955.5,286047000.4,N
1501210975.4,286047000.2,N
1501210995.2,286047002.8,N
1501211015.0,286047000.5,N
1501211015.9,286047000.5,N
1501211035.7,286046998.3,N
1501211055.6,286046997.2,N
1501211075.4,286046995.1,N
1501211095.2,286046997.6,N
1501211115.1,286046998.0,N
1501211116.0,286046998.0,N
1501211135.8,286046995.1,N
1501211155.6,286046996.4,N
1501211175.5,286046995.5,N
1501211195.3,286046996.0,N
1501211215.1,286046995.5,N
1501211235.9,286046993.4,N
1501211255.7,286046993.3,N
1501211275.5,286046993.5,N
1501211295.4,286046995.1,N
1501211315.2,286046993.3,N
1501211335.0,286046992.0,N
1501211335.9,286046992.0,N
1501211355.8,286046992.7,N
1501211375.6,286046989.2,N
1501211395.4,286046991.6,N
1501211415.2,286046989.2,N
1501211435.1,286046989.2,N
1501211436.0,286046989.2,N
1501211455.8,286046990.8,N
1501211475.6,286046991.9,N
1501211495.5,286046995.2,N
1501211515.3,286046997.8,N
1501211535.1,286046995.4,N
1501211555.9,286046995.0,N
1501211575.7,286046995.5,N
1501211595.5,286046996.2,N
1501211615.4,286046996.8,N
1501211635.2,286046998.3,N
1501211655.0,286046996.8,N
1501211655.9,286046996.8,N
1501211675.8,286046998.2,N
1501211695.6,286046998.1,N
1501211715.4,286046998.5,N
1501211735.2,286046995.3,N
1501211755.1,286046996.6,N
1501211756.0,286046996.6,N
1501211775.8,286046999.8,N
1501211795.6,286047000.7,N
1501211815.5,286047000.1,N
1501211835.3,286047001.7,N
1501211855.1,286047002.4,N
1501211875.9,286047003.9,N
1501211895.7,286047001.9,N
1501211915.5,286047002.0,N
1501211935.4,286047003.4,N
1501211955.2,286047003.8,N
1501211975.0,286047000.4,N
1501211995.0,286047001.9,N
1501211995.9,286047001.9,N
1501212015.8,286046999.8,N
1501212035.6,286046999.3,N
1501212055.4,286046999.6,N
1501212075.2,286047001.1,N
1501212095.1,286047002.3,N
1501212096.0,286047002.3,N
1501212115.8,286047001.7,N
1501212135.6,286047004.2,N
1501212155.5,286047001.9,N
1501212175.3,286047006.0,N
1501212195.1,286047003.0,N
1501212215.9,286047003.2,N
1501212235.7,286047002.9,N
1501212255.5,286047003.4,N
1501212275.4,286047004.2,N
1501212295.2,286047002.6,N
1501212315.0,286047002.2,N
1501212315.9,286047002.2,N
1501212335.8,286047004.4,N
1501212355.6,286047004.7,N
1501212375.4,286047003.3,N
1501212395.3,286047003.2,N
1501212415.1,286047003.4,N
1501212435.8,286047002.2,N
1501212455.7,286046999.8,N
1501212475.5,286047000.0,N
1501212495.3,286047002.1,N
1501212515.2,286047006.0,N
1501212535.9,286047003.9,N
1501212555.7,286047003.2,N
1501212575.5,286047003.0,N
1501212595.4,286047006.8,N
1501212615.2,286047006.4,N
1501212635.0,286047007.0,N
1501212635.9,286047007.0,N
1501212655.8,286047005.0,N
1501212675.6,286047003.3,N
1501212695.4,286047006.0,N
1501212715.3,286047002.9,N
1501212735.1,286047004.5,N
1501212736.0,286047004.5,N
1501212755.8,286047004.6,N
1501212775.7,286047007.2,N
1501212795.5,286047008.0,N
1501212815.3,286047009.1,N
1501212835.1,286047005.9,N
1501212855.9,286047007.1,N
1501212875.7,286047009.2,N
1501212895.5,286047008.8,N
1501212915.4,286047005.5,N
1501212935.2,286047005.8,N
1501212955.0,286047005.5,N
1501212955.9,286047005.5,N
1501212975.8,286047004.5,N
1501212995.6,286047008.9,N
1501213015.4,286047005.0,N
1501213035.3,286047004.6,N
1501213055.1,286047005.8,N
1501213056.0,286047005.8,N
1501213075.8,286047005.0,N
1501213095.7,286047003.5,N
1501213115.5,286047000.4,N
1501213135.3,286047000.0,N
1501213155.1,286047000.0,N
1501213175.9,286047000.1,N
1501213195.7,286047003.4,N
1501213215.5,286047003.8,N
1501213235.4,286047004.1,N
1501213255.2,286047007.0,N
1501213275.0,286047007.6,N
1501213275.9,286047007.6,N
1501213295.8,286047012.3,N
1501213315.6,286047011.3,N
1501213335.4,286047012.2,N
1501213355.3,286047011.4,N
1501213375.1,286047011.6,N
1501213376.0,286047011.6,N
1501213395.8,286047011.5,N
1501213415.7,286047007.9,N
1501213435.5,286047006.3,N
1501213455.3,286047004.7,N
1501213475.1,286047003.5,N
1501213495.9,286047004.2,N
1501213515.7,286047004.2,N
1501213535.5,286047004.3,N
1501213555.4,286047004.3,N
1501213575.2,286047003.8,N
1501213595.0,286047004.0,N
1501213595.9,286047004.0,N
1501213615.8,286047002.4,N
1501213635.6,286047000.0,N
1501213655.4,286047000.4,N
1501213675.3,286047000.3,N
1501213695.1,286047000.0,N
1501213696.0,286047000.0,N
1501213715.8,286046998.1,N
1501213735.7,286046998.2,N
1501213755.5,286046999.5,N
1501213775.3,286046998.0,N
1501213795.2,286046998.0,N
1501213815.9,286046996.8,N
1501213835.7,286046995.2,N
1501213855.6,286046995.5,N
1501213875.4,286046994.0,N
1501213895.2,286046991.8,N
1501213915.0,286046990.5,N
1501213916.0,286046990.5,N
1501213935.8,286046990.9,N
1501213955.6,286046988.8,N
1501213975.4,286046991.5,N
1501213995.3,286046989.2,N
1501214015.1,286046990.9,N
1501214035.8,286046992.6,N
1501214055.7,286046993.5,N
1501214075.5,286046997.9,N
1501214095.3,286047000.0,N
1501214115.2,286047000.1,N
1501214135.9,286047000.0,N
1501214155.7,286046998.4,N
1501214175.6,286047000.8,N
1501214195.4,286047000.2,N
1501214215.2,286047002.8,N
1501214235.1,286047001.9,N
1501214236.0,286047001.9,N
1501214255.8,286047003.5,N
1501214275.6,286047003.0,N
1501214295.4,286047004.6,N
1501214315.3,286047004.8,N
1501214335.1,286047003.0,N
1501214355.8,286047007.8,N
1501214375.7,286047004.5,N
1501214395.5,286047006.9,N
